TimeCDT,TemperatureF,Dew PointF,Humidity,Sea Level PressureIn,VisibilityMPH,Wind Direction,Wind SpeedMPH,Gust SpeedMPH,PrecipitationIn,Events,Conditions,WindDirDegrees,DateUTC
12:15 AM,50.0,44.6,82,29.99,10.0,SSE,4.6,-,N/A,,Clear,150,2012-10-04 05:15:00
12:35 AM,50.0,44.6,82,29.99,10.0,SSE,4.6,-,N/A,,Clear,150,2012-10-04 05:35:00
12:55 AM,48.2,44.6,87,29.99,10.0,SSE,3.5,-,N/A,,Clear,160,2012-10-04 05:55:00
1:15 AM,50.0,44.6,82,29.98,10.0,SSE,4.6,-,N/A,,Clear,160,2012-10-04 06:15:00
1:35 AM,50.0,44.6,82,29.98,10.0,South,4.6,-,N/A,,Clear,170,2012-10-04 06:35:00
2:15 AM,50.0,44.6,82,29.97,10.0,SSE,5.8,-,N/A,,Clear,160,2012-10-04 07:15:00
2:35 AM,48.2,44.6,87,29.97,10.0,SSE,4.6,-,N/A,,Clear,160,2012-10-04 07:35:00
2:55 AM,46.4,44.6,93,29.96,10.0,SSE,4.6,-,N/A,,Clear,160,2012-10-04 07:55:00
3:15 AM,46.4,44.6,93,29.96,10.0,SSE,4.6,-,N/A,,Clear,150,2012-10-04 08:15:00
3:35 AM,46.4,44.6,93,29.95,10.0,SSE,4.6,-,N/A,,Clear,150,2012-10-04 08:35:00
3:55 AM,44.6,44.6,100,29.95,10.0,SSE,4.6,-,N/A,,Clear,150,2012-10-04 08:55:00
4:15 AM,44.6,44.6,100,29.94,10.0,SE,5.8,-,N/A,,Clear,140,2012-10-04 09:15:00
4:35 AM,44.6,44.6,100,29.94,10.0,SSE,5.8,-,N/A,,Clear,150,2012-10-04 09:35:00
4:55 AM,46.4,44.6,93,29.93,10.0,SSE,5.8,-,N/A,,Clear,150,2012-10-04 09:55:00
5:15 AM,44.6,44.6,100,29.92,10.0,SE,5.8,-,N/A,,Clear,140,2012-10-04 10:15:00
5:35 AM,44.6,44.6,100,29.92,10.0,SE,4.6,-,N/A,,Clear,140,2012-10-04 10:35:00
5:45 AM,46.4,46.4,100,29.92,10.0,SSE,4.6,-,N/A,,Clear,150,2012-10-04 10:45:00
6:50 AM,46.4,46.4,100,29.91,10.0,SSE,5.8,-,N/A,,Clear,150,2012-10-04 11:50:00
7:45 AM,48.2,48.2,100,29.90,10.0,SSE,5.8,-,N/A,,Clear,160,2012-10-04 12:45:00
8:45 AM,55.4,51.8,88,29.88,10.0,South,10.4,-,N/A,,Clear,170,2012-10-04 13:45:00
9:50 AM,57.2,48.2,72,29.88,10.0,SSW,11.5,21.9,N/A,,Mostly Cloudy,210,2012-10-04 14:50:00
11:45 AM,55.4,42.8,63,29.90,10.0,SW,13.8,23.0,N/A,,Clear,230,2012-10-04 16:45:00
11:50 AM,60.8,46.4,59,29.88,10.0,SW,18.4,-,N/A,,Mostly Cloudy,230,2012-10-04 16:50:00
12:45 PM,59.0,42.8,55,29.90,10.0,SW,16.1,21.9,N/A,,Clear,220,2012-10-04 17:45:00
12:49 PM,84.2,66.2,55,30.18,10.0,SSE,12.7,-,N/A,,Scattered Clouds,150,2012-10-04 17:49:00
1:52 PM,60.8,39.2,45,29.90,10.0,WSW,16.1,25.3,N/A,,Clear,240,2012-10-04 18:52:00
2:45 PM,60.8,35.6,39,29.92,10.0,WSW,17.3,-,N/A,,Clear,250,2012-10-04 19:45:00
3:45 PM,59.0,35.6,42,29.93,10.0,WSW,20.7,26.5,N/A,,Clear,250,2012-10-04 20:45:00
5:50 PM,51.8,32.0,47,29.97,10.0,West,19.6,26.5,N/A,,Clear,260,2012-10-04 22:50:00
7:45 PM,46.4,30.2,53,30.01,10.0,West,19.6,25.3,N/A,,Clear,260,2012-10-05 00:45:00
9:45 PM,42.8,30.2,61,30.03,10.0,West,16.1,28.8,N/A,,Clear,260,2012-10-05 02:45:00
10:15 PM,42.8,30.2,61,30.03,10.0,West,16.1,20.7,N/A,,Overcast,260,2012-10-05 03:15:00
10:35 PM,42.8,30.2,61,30.03,10.0,West,15.0,19.6,N/A,,Overcast,260,2012-10-05 03:35:00
10:55 PM,42.8,30.2,61,30.03,10.0,West,9.2,24.2,N/A,,Overcast,270,2012-10-05 03:55:00
11:15 PM,41.0,30.2,65,30.04,10.0,West,12.7,25.3,N/A,,Mostly Cloudy,270,2012-10-05 04:15:00
11:35 PM,41.0,30.2,65,30.04,10.0,West,12.7,19.6,N/A,,Mostly Cloudy,270,2012-10-05 04:35:00
11:55 PM,41.0,30.2,65,30.04,10.0,West,15.0,18.4,N/A,,Overcast,260,2012-10-05 04:55:00